DW2715 Weather Reports


Display with metric or nautical units.
time (UTC)temp
F
wind
direction
speed
MPH
gust
MPH
rain 1hr
in
rain 24hr
in
rain mn
in
humidity
%
barometer
mb
20181019103623 73 32 2.0 9.0 0.00 0.00 0.00 53 1017.9
20181019102616 72 97 2.0 8.0 0.00 0.00 0.00 55 1017.9
20181019101635 72 100 2.0 8.0 0.00 0.00 0.00 56 1017.9
20181019100619 71 0 2.0 7.0 0.00 0.00 0.00 56 1018.0
20181019095627 71 5 2.0 6.0 0.00 0.00 0.00 58 1017.9
20181019094628 71 57 1.0 4.0 0.00 0.00 0.00 59 1018.1
20181019093620 70 350 2.0 4.0 0.00 0.00 0.00 60 1018.0
20181019092608 69 0 1.0 4.0 0.00 0.00 0.00 62 1018.0
20181019091624 69 71 1.0 5.0 0.00 0.00 0.00 65 1017.8
20181019090609 68 29 3.0 7.0 0.00 0.00 0.00 65 1017.9
20181019085621 68 30 3.0 7.0 0.00 0.00 0.00 66 1017.8
20181019084641 68 51 3.0 7.0 0.00 0.00 0.00 66 1017.9
20181019083610 67 38 2.0 6.0 0.00 0.00 0.00 67 1017.9
20181019082557 66 5 3.0 6.0 0.00 0.00 0.00 68 1017.9
20181019081530 66 46 2.0 5.0 0.00 0.00 0.00 71 1017.8
20181019080514 65 30 2.0 6.0 0.00 0.00 0.00 72 1017.8
20181019075512 65 0 2.0 6.0 0.00 0.00 0.00 73 1017.7
20181019074509 64 36 2.0 6.0 0.00 0.00 0.00 74 1017.6
20181019073510 63 5 1.0 4.0 0.00 0.00 0.00 78 1017.5
20181019072505 62 355 2.0 4.0 0.00 0.00 0.00 79 1017.5
20181019071522 62 5 2.0 4.0 0.00 0.00 0.00 80 1017.4
20181019070539 62 336 2.0 4.0 0.00 0.00 0.00 80 1017.4
20181019065526 61 17 1.0 4.0 0.00 0.00 0.00 82 1017.3
20181019064530 60 350 1.0 3.0 0.00 0.00 0.00 85 1017.1
20181019063537 59 350 1.0 3.0 0.00 0.00 0.00 86 1017.0
20181019062527 58 348 0.0 1.0 0.00 0.00 0.00 87 1017.1
20181019061505 57 348 0.0 2.0 0.00 0.00 0.00 89 1016.9
20181019060527 57 348 1.0 2.0 0.00 0.00 0.00 89 1016.8
20181019055522 57 302 0.0 0.0 0.00 0.00 0.00 89 1016.8
20181019054514 57 302 0.0 0.0 0.00 0.00 0.00 89 1016.7
20181019053442 57 302 0.0 0.0 0.00 0.00 0.00 88 1016.7
20181019052437 57 302 0.0 1.0 0.00 0.00 0.00 89 1016.5
20181019051438 57 302 0.0 0.0 0.00 0.00 0.00 88 1016.4
20181019050401 57 302 0.0 3.0 0.00 0.00 0.00 89 1016.3
20181019045339 57 302 1.0 3.0 0.00 0.00 0.00 89 1016.3
20181019044341 57 309 0.0 2.0 0.00 0.00 0.00 90 1016.4
20181019043402 57 329 0.0 3.0 0.00 0.00 0.00 90 1016.5
20181019042356 57 322 0.0 2.0 0.00 0.00 0.00 90 1016.5
20181019041346 57 322 0.0 2.0 0.00 0.00 0.00 90 1016.4
20181019040328 57 264 0.0 2.0 0.00 0.00 0.00 90 1016.4
20181019035330 57 261 0.0 2.0 0.00 0.00 0.00 89 1016.4
20181019034314 57 309 0.0 0.0 0.00 0.00 0.00 89 1016.4
20181019033317 58 309 0.0 0.0 0.00 0.00 0.00 89 1016.3
20181019032305 58 309 0.0 0.0 0.00 0.00 0.00 90 1016.2
20181019031318 58 309 0.0 0.0 0.00 0.00 0.00 90 1016.2
20181019030310 58 309 0.0 0.0 0.00 0.00 0.00 90 1016.2
20181019025303 58 309 0.0 0.0 0.00 0.00 0.00 90 1016.2
20181019024250 58 309 0.0 0.0 0.00 0.00 0.00 90 1016.2
20181019023232 58 309 0.0 0.0 0.00 0.00 0.00 90 1016.2
20181019022158 58 309 0.0 0.0 0.00 0.00 0.00 90 1016.3
20181019021124 58 309 0.0 0.0 0.00 0.00 0.00 90 1016.3
20181019020102 58 309 0.0 0.0 0.00 0.00 0.00 90 1016.3
20181019015034 58 309 0.0 0.0 0.00 0.00 0.00 90 1016.3
20181019014013 58 309 0.0 0.0 0.00 0.00 0.00 89 1016.3
20181019012947 58 309 0.0 0.0 0.00 0.00 0.00 90 1016.4
20181019011933 59 309 0.0 0.0 0.00 0.00 0.00 90 1016.5
20181019010922 59 309 0.0 1.0 0.00 0.00 0.00 90 1016.3
20181019005924 59 309 0.0 2.0 0.00 0.00 0.00 90 1016.4
20181019004900 59 309 0.0 1.0 0.00 0.00 0.00 89 1016.5
20181019003841 59 309 1.0 2.0 0.00 0.00 0.00 89 1016.6
20181019002839 59 277 0.0 2.0 0.00 0.00 0.00 89 1016.5
20181019001855 59 273 0.0 2.0 0.00 0.00 0.00 89 1016.7
20181019000829 59 273 0.0 2.0 0.00 0.00 0.00 89 1016.7
20181018235818 60 273 0.0 2.0 0.00 0.00 0.00 89 1016.7
20181018234839 60 273 0.0 2.0 0.00 0.00 0.00 89 1016.7
20181018233848 60 263 0.0 1.0 0.00 0.00 0.00 89 1016.7
20181018232848 59 263 0.0 1.0 0.00 0.00 0.00 88 1016.8
20181018231906 59 263 0.0 1.0 0.00 0.00 0.00 88 1016.7
20181018230909 60 263 0.0 1.0 0.00 0.00 0.00 88 1016.7
20181018225921 60 263 0.0 0.0 0.00 0.00 0.00 87 1016.7
20181018224938 60 263 0.0 0.0 0.00 0.00 0.00 87 1016.5
20181018223931 60 263 0.0 0.0 0.00 0.00 0.00 87 1016.6
20181018222950 61 263 0.0 0.0 0.00 0.00 0.00 87 1016.4
20181018221952 61 263 0.0 0.0 0.00 0.00 0.00 87 1016.4
20181018220925 61 263 0.0 1.0 0.00 0.00 0.00 87 1016.3
20181018215921 61 263 0.0 0.0 0.00 0.00 0.00 87 1016.3
20181018214925 61 263 0.0 0.0 0.00 0.00 0.00 86 1016.2
20181018213922 61 263 0.0 0.0 0.00 0.00 0.00 86 1016.1
20181018212855 61 263 0.0 0.0 0.00 0.00 0.00 85 1016.0
20181018211913 61 263 0.0 0.0 0.00 0.00 0.00 85 1016.0
20181018210854 62 263 0.0 0.0 0.00 0.00 0.00 84 1016.0
20181018205917 62 263 0.0 0.0 0.00 0.00 0.00 84 1015.9
20181018204909 62 263 0.0 0.0 0.00 0.00 0.00 84 1015.8
20181018203845 62 264 0.0 0.0 0.00 0.00 0.00 84 1015.7
20181018202824 62 263 0.0 0.0 0.00 0.00 0.00 84 1015.6
20181018201805 63 263 0.0 0.0 0.00 0.00 0.00 84 1015.5
20181018200735 63 263 0.0 1.0 0.00 0.00 0.00 84 1015.5
20181018195701 63 263 0.0 0.0 0.00 0.00 0.00 83 1015.4
20181018194706 63 263 0.0 1.0 0.00 0.00 0.00 83 1015.5
20181018193643 63 263 0.0 0.0 0.00 0.00 0.00 82 1015.4
20181018192623 64 263 0.0 0.0 0.00 0.00 0.00 82 1015.3
20181018191558 64 263 0.0 0.0 0.00 0.00 0.00 81 1015.2
20181018190529 64 263 0.0 0.0 0.00 0.00 0.00 81 1015.2
20181018185544 65 263 0.0 0.0 0.00 0.00 0.00 80 1015.2
20181018184531 65 263 0.0 0.0 0.00 0.00 0.00 78 1015.2
20181018183525 65 263 0.0 0.0 0.00 0.00 0.00 78 1015.1
20181018182532 66 263 0.0 0.0 0.00 0.00 0.00 77 1015.1
20181018181510 66 263 0.0 1.0 0.00 0.00 0.00 76 1015.1
20181018180528 67 263 0.0 0.0 0.00 0.00 0.00 76 1015.0
20181018175534 67 263 0.0 0.0 0.00 0.00 0.00 75 1014.9
20181018174538 67 263 0.0 0.0 0.00 0.00 0.00 75 1014.9
20181018173515 68 263 0.0 0.0 0.00 0.00 0.00 74 1014.8
20181018172506 68 263 0.0 0.0 0.00 0.00 0.00 72 1014.8
20181018171504 69 263 0.0 0.0 0.00 0.00 0.00 71 1014.7
20181018170515 70 263 0.0 0.0 0.00 0.00 0.00 68 1014.6
20181018165508 70 263 0.0 0.0 0.00 0.00 0.00 68 1014.5
20181018164437 71 263 0.0 0.0 0.00 0.00 0.00 67 1014.4
20181018163412 71 263 0.0 0.0 0.00 0.00 0.00 65 1014.3
20181018162422 72 263 0.0 1.0 0.00 0.00 0.00 64 1014.3
20181018161345 72 263 0.0 1.0 0.00 0.00 0.00 63 1014.2
20181018160312 73 263 0.0 0.0 0.00 0.00 0.00 62 1014.2
20181018155333 73 263 0.0 1.0 0.00 0.00 0.00 62 1014.2
20181018154310 73 263 0.0 1.0 0.00 0.00 0.00 61 1014.2
20181018153317 73 263 0.0 2.0 0.00 0.00 0.00 61 1014.2
20181018152250 73 263 0.0 2.0 0.00 0.00 0.00 62 1014.3
20181018151305 73 5 0.0 2.0 0.00 0.00 0.00 61 1014.3
20181018150318 74 10 1.0 2.0 0.00 0.00 0.00 60 1014.1
20181018145242 74 14 0.0 1.0 0.00 0.00 0.00 58 1014.1
20181018144302 74 14 1.0 2.0 0.00 0.00 0.00 58 1014.1
20181018143255 74 23 0.0 2.0 0.00 0.00 0.00 58 1014.1
20181018142257 74 24 0.0 1.0 0.00 0.00 0.00 58 1014.3
20181018141230 74 24 0.0 0.0 0.00 0.00 0.00 58 1014.3
20181018140212 74 24 0.0 2.0 0.00 0.00 0.00 58 1014.3
20181018135204 74 24 0.0 3.0 0.00 0.00 0.00 59 1014.3
20181018134143 74 24 1.0 3.0 0.00 0.00 0.00 58 1014.4
20181018133126 74 48 0.0 2.0 0.00 0.00 0.00 58 1014.4
20181018132131 74 45 1.0 7.0 0.00 0.00 0.00 58 1014.4
20181018131119 74 45 2.0 7.0 0.00 0.00 0.00 57 1014.4
20181018130139 74 46 1.0 3.0 0.00 0.00 0.00 58 1014.4
20181018125125 74 63 1.0 3.0 0.00 0.00 0.00 58 1014.5
20181018124131 73 45 0.0 3.0 0.00 0.00 0.00 58 1014.5
20181018123107 74 52 1.0 2.0 0.00 0.00 0.00 58 1014.6
20181018122128 74 15 2.0 4.0 0.00 0.00 0.00 56 1014.8
20181018121133 73 19 1.0 4.0 0.00 0.00 0.00 57 1014.9
20181018120142 73 47 1.0 3.0 0.00 0.00 0.00 58 1015.0
20181018115110 73 58 1.0 6.0 0.00 0.00 0.00 59 1015.0
20181018114116 72 340 1.0 6.0 0.00 0.00 0.00 61 1015.1
20181018113124 73 9 2.0 5.0 0.00 0.00 0.00 61 1015.2
20181018112055 72 327 1.0 3.0 0.00 0.00 0.00 62 1015.4
20181018111059 72 0 0.0 3.0 0.00 0.00 0.00 64 1015.5
20181018110113 71 28 1.0 3.0 0.00 0.00 0.00 65 1015.6
20181018105101 71 291 1.0 3.0 0.00 0.00 0.00 65 1015.7